TimeEDT,TemperatureF,Dew PointF,Humidity,Sea Level PressureIn,VisibilityMPH,Wind Direction,Wind SpeedMPH,Gust SpeedMPH,PrecipitationIn,Events,Conditions,WindDirDegrees,DateUTC
12:28 AM,75.2,71.6,89,30.21,8.0,ENE,8.1,-,N/A,,Scattered Clouds,60,2013-08-25 04:28:00
12:53 AM,75.0,72.0,90,30.21,8.0,ENE,9.2,-,N/A,,Scattered Clouds,70,2013-08-25 04:53:00
1:53 AM,73.9,71.1,91,30.21,9.0,ENE,6.9,-,N/A,,Clear,60,2013-08-25 05:53:00
2:53 AM,73.9,70.0,87,30.21,9.0,ENE,6.9,-,N/A,,Clear,60,2013-08-25 06:53:00
3:53 AM,73.0,70.0,90,30.21,8.0,ENE,6.9,-,N/A,,Clear,60,2013-08-25 07:53:00
4:53 AM,73.9,70.0,87,30.21,9.0,NE,5.8,-,N/A,,Overcast,50,2013-08-25 08:53:00
5:53 AM,73.0,70.0,90,30.22,9.0,NE,9.2,-,N/A,,Mostly Cloudy,50,2013-08-25 09:53:00
6:53 AM,73.9,70.0,87,30.23,10.0,ENE,10.4,-,N/A,,Overcast,60,2013-08-25 10:53:00
7:53 AM,73.9,69.1,85,30.26,10.0,ENE,9.2,-,N/A,,Overcast,60,2013-08-25 11:53:00
8:53 AM,75.0,69.1,82,30.26,10.0,ENE,9.2,-,N/A,,Partly Cloudy,70,2013-08-25 12:53:00
9:53 AM,79.0,70.0,74,30.27,10.0,ENE,9.2,-,N/A,,Clear,70,2013-08-25 13:53:00
10:53 AM,81.0,69.1,67,30.28,10.0,East,11.5,-,N/A,,Scattered Clouds,80,2013-08-25 14:53:00
11:53 AM,82.9,68.0,60,30.28,10.0,East,11.5,-,N/A,,Partly Cloudy,80,2013-08-25 15:53:00
11:56 AM,82.4,68.0,62,30.28,10.0,ENE,15.0,18.4,N/A,,Mostly Cloudy,60,2013-08-25 15:56:00
12:53 PM,84.9,68.0,57,30.26,10.0,ENE,9.2,-,N/A,,Mostly Cloudy,60,2013-08-25 16:53:00
12:55 PM,84.2,66.2,55,30.27,10.0,NE,10.4,-,N/A,,Mostly Cloudy,50,2013-08-25 16:55:00
1:53 PM,84.9,66.9,55,30.24,10.0,ENE,12.7,-,N/A,,Mostly Cloudy,70,2013-08-25 17:53:00
2:53 PM,86.0,66.0,51,30.22,10.0,ENE,11.5,20.7,N/A,,Mostly Cloudy,70,2013-08-25 18:53:00
3:53 PM,84.9,64.9,51,30.20,10.0,ENE,12.7,-,N/A,,Mostly Cloudy,70,2013-08-25 19:53:00
4:53 PM,84.9,63.0,48,30.20,10.0,ENE,11.5,17.3,N/A,,Partly Cloudy,60,2013-08-25 20:53:00
5:53 PM,86.0,64.0,48,30.20,10.0,ENE,12.7,-,N/A,,Partly Cloudy,60,2013-08-25 21:53:00
6:53 PM,84.0,62.1,47,30.20,10.0,ENE,12.7,-,N/A,,Clear,60,2013-08-25 22:53:00
7:53 PM,80.1,63.0,56,30.21,10.0,ENE,6.9,-,N/A,,Clear,60,2013-08-25 23:53:00
8:53 PM,78.1,63.0,60,30.23,10.0,NE,4.6,-,N/A,,Clear,40,2013-08-26 00:53:00
9:53 PM,73.0,63.0,71,30.25,10.0,NE,5.8,-,N/A,,Clear,50,2013-08-26 01:53:00
10:53 PM,73.0,63.0,71,30.26,10.0,NE,6.9,-,N/A,,Clear,50,2013-08-26 02:53:00
11:53 PM,72.0,62.1,71,30.27,10.0,NE,6.9,-,N/A,,Clear,50,2013-08-26 03:53:00